Location: Newark
(42.7133°N, 87.7910°W)
Time: 17:11:54
(UTC+00:00)

Courier 1B Rocket - Visible Passes

Search period start: 19 October 2019 00:00
Search period end: 29 October 2019 00:00
Orbit: 920 x 1202 km, 28.2° (Epoch: 19 October)

Date Brightness Start Highest point End Pass type
(mag) Time Alt. Az. Time Alt. Az. Time Alt. Az.
19 Oct 6.8 09:32:59 16° S 09:33:25 16° SSE 09:37:07 10° SE visible
19 Oct 6.7 11:21:09 10° SW 11:25:47 22° S 11:30:33 10° SE visible
20 Oct 6.6 10:22:14 15° SSW 10:25:05 21° S 10:29:38 10° SE visible
21 Oct 6.7 09:25:05 18° SSE 09:25:05 18° SSE 09:28:36 10° SE visible
21 Oct 6.6 11:12:18 10° SW 11:16:48 21° S 11:21:22 10° SE visible
22 Oct 6.4 10:14:17 19° SSW 10:16:06 21° S 10:20:40 10° SE visible
23 Oct 6.7 09:17:07 18° SSE 09:17:07 18° SSE 09:19:52 10° SE visible
23 Oct 6.7 11:03:39 10° SW 11:07:48 19° S 11:12:01 10° SSE visible
24 Oct 6.4 10:06:20 20° SSW 10:07:08 20° S 10:11:33 10° SE visible
25 Oct 6.9 09:09:10 16° SSE 09:09:10 16° SSE 09:10:58 10° SE visible
25 Oct 6.8 10:55:33 11° SW 10:58:47 16° SSW 11:02:20 10° SSE visible
26 Oct 6.6 09:58:24 18° S 09:58:24 18° S 10:02:14 10° SSE visible
27 Oct 7.2 09:01:17 12° SE 09:01:17 12° SE 09:01:54 10° SE visible
27 Oct 6.9 10:47:39 10° SW 10:49:45 12° SSW 10:52:03 10° S visible
28 Oct 6.9 09:50:33 14° S 09:50:33 14° S 09:52:37 10° SSE visible
